When you browse on this site, cookies collect data to enhance your experience and personalize the content and advertising you see.
Visit our Privacy Policy to learn more. By continuing to use the site, you agree to this use of cookies and data.
  • In Switzerland
  • List of Countries
  • For 7 days
  • Water Temperature
  • Satellite Maps
  • Weather Map
  • Weather Widgets
  • user-avatar
    Login

    Hourly Weather Tovste

    Today, 22 April, Monday

    Time Temperature Precipitation Wind Pressure Humidity
    00:00 +10°C° 0 mm 2 mps 760 mmHg 48%
    01:00 +10°C° 0 mm 2 mps 760 mmHg 49%
    02:00 +9°C° 0 mm 2 mps 761 mmHg 49%
    03:00 +9°C° 0 mm 2 mps 761 mmHg 50%
    04:00 +9°C° 0 mm 2 mps 761 mmHg 51%
    05:00 +8°C° 0 mm 3 mps 761 mmHg 52%
    06:00 +9°C° 0 mm 3 mps 761 mmHg 50%
    07:00 +11°C° 0 mm 3 mps 762 mmHg 48%
    08:00 +12°C° 0 mm 3 mps 762 mmHg 46%
    09:00 +13°C° 0 mm 4 mps 762 mmHg 41%
    10:00 +14°C° 0 mm 4 mps 762 mmHg 36%
    11:00 +15°C° 0 mm 4 mps 762 mmHg 31%
    12:00 +15°C° 0 mm 4 mps 762 mmHg 32%
    13:00 +15°C° 0 mm 4 mps 762 mmHg 33%
    14:00 +16°C° 0 mm 3 mps 762 mmHg 33%
    15:00 +16°C° 0 mm 3 mps 762 mmHg 35%
    16:00 +16°C° 0 mm 3 mps 762 mmHg 37%
    17:00 +16°C° 0 mm 3 mps 762 mmHg 38%
    18:00 +15°C° 0 mm 2 mps 762 mmHg 42%
    19:00 +13°C° 0 mm 2 mps 762 mmHg 46%
    20:00 +12°C° 0 mm 2 mps 763 mmHg 49%
    21:00 +10°C° 0 mm 2 mps 763 mmHg 49%
    22:00 +10°C° 0 mm 2 mps 763 mmHg 49%
    23:00 +9°C° 0 mm 2 mps 763 mmHg 49%

    Tomorrow, 23 April, Tuesday

    Time Temperature Precipitation Wind Pressure Humidity
    00:00 +9°C° 0 mm 2 mps 763 mmHg 50%
    01:00 +9°C° 0 mm 3 mps 764 mmHg 50%
    02:00 +8°C° 0 mm 3 mps 764 mmHg 50%
    03:00 +8°C° 0 mm 3 mps 764 mmHg 51%
    04:00 +8°C° 0 mm 3 mps 764 mmHg 52%
    05:00 +9°C° 0 mm 3 mps 764 mmHg 53%
    06:00 +10°C° 0 mm 3 mps 764 mmHg 52%
    07:00 +11°C° 0 mm 3 mps 764 mmHg 50%
    08:00 +12°C° 0 mm 3 mps 765 mmHg 49%
    09:00 +14°C° 0 mm 3 mps 765 mmHg 44%
    10:00 +16°C° 0 mm 3 mps 765 mmHg 40%
    11:00 +18°C° 0 mm 3 mps 765 mmHg 35%
    12:00 +18°C° 0 mm 3 mps 765 mmHg 36%
    13:00 +18°C° 0 mm 3 mps 764 mmHg 36%
    14:00 +18°C° 0 mm 3 mps 764 mmHg 37%
    15:00 +17°C° 0 mm 2 mps 764 mmHg 38%
    16:00 +17°C° 0 mm 2 mps 764 mmHg 39%
    17:00 +17°C° 0 mm 2 mps 764 mmHg 40%
    18:00 +16°C° 0 mm 2 mps 764 mmHg 43%
    19:00 +15°C° 0 mm 1 mps 764 mmHg 46%
    20:00 +14°C° 0 mm 1 mps 764 mmHg 49%
    21:00 +14°C° 0 mm 1 mps 764 mmHg 49%
    22:00 +14°C° 0 mm 1 mps 765 mmHg 49%
    23:00 +13°C° 0 mm 1 mps 765 mmHg 49%

    Day after tomorrow, 24 April, Wednesday

    Time Temperature Precipitation Wind Pressure Humidity
    00:00 +13°C° 0 mm 1 mps 765 mmHg 49%
    01:00 +13°C° 0 mm 1 mps 765 mmHg 49%
    02:00 +13°C° 0 mm 1 mps 765 mmHg 50%
    03:00 +12°C° 0 mm 1 mps 765 mmHg 50%
    04:00 +12°C° 0 mm 1 mps 765 mmHg 51%
    05:00 +11°C° 0 mm 0 mps 765 mmHg 52%
    06:00 +13°C° 0 mm 1 mps 765 mmHg 49%
    07:00 +15°C° 0 mm 1 mps 765 mmHg 46%
    08:00 +16°C° 0 mm 1 mps 765 mmHg 43%
    09:00 +17°C° 0 mm 2 mps 765 mmHg 40%
    10:00 +18°C° 0 mm 2 mps 765 mmHg 37%
    11:00 +19°C° 0 mm 2 mps 765 mmHg 34%
    12:00 +19°C° 0 mm 2 mps 765 mmHg 33%
    13:00 +19°C° 0 mm 2 mps 765 mmHg 33%
    14:00 +21°C° 0 mm 1 mps 765 mmHg 32%
    15:00 +21°C° 0 mm 1 mps 764 mmHg 33%
    16:00 +21°C° 0 mm 1 mps 764 mmHg 33%
    17:00 +18°C° 0 mm 0 mps 764 mmHg 34%
    18:00 +19°C° 0 mm 1 mps 764 mmHg 38%
    19:00 +16°C° 0 mm 1 mps 764 mmHg 41%
    20:00 +15°C° 0 mm 1 mps 764 mmHg 45%
    21:00 +14°C° 0 mm 1 mps 764 mmHg 47%
    22:00 +14°C° 0 mm 1 mps 764 mmHg 48%
    23:00 +13°C° 0 mm 1 mps 765 mmHg 50%

    25 April, Thursday

    Time Temperature Precipitation Wind Pressure Humidity
    00:00 +13°C° 0 mm 1 mps 765 mmHg 51%
    01:00 +13°C° 0 mm 1 mps 765 mmHg 53%
    02:00 +12°C° 0 mm 1 mps 765 mmHg 54%
    03:00 +12°C° 0 mm 1 mps 765 mmHg 56%
    04:00 +12°C° 0 mm 1 mps 765 mmHg 57%
    05:00 +11°C° 0 mm 1 mps 765 mmHg 59%
    06:00 +13°C° 0 mm 1 mps 765 mmHg 55%
    07:00 +15°C° 0 mm 1 mps 765 mmHg 51%
    08:00 +18°C° 0 mm 1 mps 765 mmHg 47%
    09:00 +19°C° 0 mm 1 mps 765 mmHg 44%
    10:00 +21°C° 0 mm 1 mps 765 mmHg 40%
    11:00 +22°C° 0 mm 1 mps 765 mmHg 36%
    12:00 +22°C° 0 mm 1 mps 764 mmHg 36%
    13:00 +23°C° 0 mm 1 mps 764 mmHg 35%
    14:00 +23°C° 0 mm 1 mps 764 mmHg 35%
    15:00 +23°C° 0 mm 1 mps 763 mmHg 36%
    16:00 +23°C° 0 mm 1 mps 763 mmHg 38%
    17:00 +23°C° 0 mm 1 mps 762 mmHg 39%
    18:00 +21°C° 0 mm 1 mps 762 mmHg 43%
    19:00 +19°C° 0 mm 1 mps 762 mmHg 46%
    20:00 +18°C° 0 mm 1 mps 762 mmHg 50%
    21:00 +16°C° 0 mm 1 mps 762 mmHg 51%
    22:00 +16°C° 0 mm 1 mps 762 mmHg 52%
    23:00 +15°C° 0 mm 1 mps 762 mmHg 53%

    26 April, Friday

    Time Temperature Precipitation Wind Pressure Humidity
    00:00 +15°C° 0 mm 1 mps 762 mmHg 55%
    01:00 +15°C° 0 mm 1 mps 762 mmHg 56%
    02:00 +14°C° 0 mm 1 mps 762 mmHg 58%
    03:00 +14°C° 0 mm 1 mps 762 mmHg 60%
    04:00 +13°C° 0 mm 1 mps 761 mmHg 63%
    05:00 +13°C° 0 mm 1 mps 761 mmHg 65%
    06:00 +15°C° 0 mm 1 mps 761 mmHg 61%
    07:00 +18°C° 0 mm 1 mps 761 mmHg 57%
    08:00 +19°C° 0 mm 2 mps 761 mmHg 53%
    09:00 +20°C° 0 mm 2 mps 761 mmHg 49%
    10:00 +23°C° 0 mm 2 mps 761 mmHg 45%
    11:00 +24°C° 0 mm 3 mps 760 mmHg 41%
    12:00 +24°C° 0 mm 3 mps 760 mmHg 40%
    13:00 +24°C° 0 mm 3 mps 759 mmHg 40%
    14:00 +25°C° 0 mm 3 mps 759 mmHg 39%
    15:00 +24°C° 0 mm 3 mps 759 mmHg 42%
    16:00 +24°C° 0 mm 3 mps 758 mmHg 44%
    17:00 +23°C° 0 mm 2 mps 758 mmHg 46%
    18:00 +21°C° 0 mm 2 mps 758 mmHg 49%
    19:00 +20°C° 0 mm 1 mps 758 mmHg 53%
    20:00 +19°C° 0 mm 1 mps 758 mmHg 56%
    21:00 +18°C° 0 mm 1 mps 758 mmHg 57%
    22:00 +18°C° 0 mm 1 mps 758 mmHg 58%
    23:00 +18°C° 0 mm 1 mps 758 mmHg 58%

    27 April, Saturday

    Time Temperature Precipitation Wind Pressure Humidity
    00:00 +16°C° 0 mm 1 mps 758 mmHg 59%
    01:00 +16°C° 0 mm 1 mps 757 mmHg 61%
    02:00 +16°C° 0 mm 1 mps 757 mmHg 62%
    03:00 +16°C° 0 mm 1 mps 757 mmHg 62%
    04:00 +16°C° 0 mm 1 mps 757 mmHg 62%
    05:00 +16°C° 0 mm 1 mps 757 mmHg 62%
    06:00 +16°C° 0 mm 1 mps 758 mmHg 61%
    07:00 +16°C° 0 mm 0 mps 758 mmHg 60%
    08:00 +17°C° 0 mm 0 mps 758 mmHg 58%
    09:00 +20°C° 0 mm 1 mps 758 mmHg 55%
    10:00 +21°C° 0 mm 1 mps 758 mmHg 52%
    11:00 +22°C° 0 mm 1 mps 758 mmHg 48%
    12:00 +23°C° 0 mm 1 mps 757 mmHg 44%
    13:00 +23°C° 0 mm 1 mps 757 mmHg 40%
    14:00 +24°C° 0 mm 1 mps 757 mmHg 36%
    15:00 +24°C° 0 mm 1 mps 757 mmHg 39%
    16:00 +23°C° 0 mm 1 mps 757 mmHg 41%
    17:00 +23°C° 0 mm 1 mps 757 mmHg 44%
    18:00 +22°C° 0 mm 1 mps 757 mmHg 48%
    19:00 +20°C° 0 mm 1 mps 757 mmHg 53%
    20:00 +19°C° 0 mm 1 mps 757 mmHg 57%
    21:00 +19°C° 0 mm 1 mps 757 mmHg 58%
    22:00 +18°C° 0 mm 1 mps 757 mmHg 58%
    23:00 +18°C° 0 mm 1 mps 758 mmHg 59%
    Show more